Location: El Conde
(10.2895°N, 67.2409°W)
Time: 19:39:04
(UTC+00:00)

Helios 1A - Pass Details

Date: 19 May 2024
Orbit: 570 x 580 km, 98.3° (Epoch: 30 March)

Event Time Altitude Azimuth Distance (km) Brightness Sun altitude
Rises 23:05:14 0° 1° (N) 2,768 6.7 -5.6°
Reaches altitude 10° 23:07:27 10° 355° (N) 1,872 5.9 -6.1°
Maximum altitude 23:11:17 43° 283° (WNW) 811 4.4 -7.0°
Drops below altitude 10° 23:15:09 10° 211° (SSW) 1,877 5.7 -7.9°
Sets 23:17:22 0° 205° (SSW) 2,776 6.4 -8.4°
